Location: Bartlett
(35.2045°N, 89.8740°W)
Time: 16:10:59
(UTC+00:00)

Transit 4A - Pass Details

Date: 15 December 2025
Orbit: 867 x 974 km, 66.8° (Epoch: 14 January)

Event Time Altitude Azimuth Distance (km) Brightness Sun altitude
Rises 09:15:23 0° 338° (NNW) 3,531 - -45.1°
Reaches altitude 10° 09:17:57 10° 343° (NNW) 2,602 - -44.6°
Maximum altitude 09:23:51 53° 60° (ENE) 1,133 - -43.4°
Exits shadow 09:28:26 18° 132° (SE) 2,156 10.1 -42.5°
Drops below altitude 10° 09:29:54 10° 136° (SE) 2,662 10.7 -42.2°
Sets 09:32:32 0° 141° (SE) 3,618 11.4 -41.6°
